Location: Tierz
(42.1336°N, 0.3549°W)
Time: 18:23:56
(UTC+00:00)

Lacrosse 5 - Pass Details

Date: 29 October 2020
Orbit: 714 x 725 km, 57.0° (Epoch: 30 November)

Event Time Altitude Azimuth Distance (km) Brightness Sun altitude
Rises 18:11:42 0° 308° (NW) 3,119 5.9 -14.1°
Reaches altitude 10° 18:15:05 10° 331° (NNW) 2,198 4.7 -14.7°
Maximum altitude 18:18:01 15° 7° (N) 1,864 3.9 -15.2°
Enters shadow 18:20:14 12° 36° (NE) 2,061 3.9 -15.7°
